FW5694 Weather Reports


Display with metric or nautical units.
time (UTC)temp
F
wind
direction
speed
MPH
gust
MPH
rain 1hr
in
rain 24hr
in
rain mn
in
humidity
%
barometer
mb
20260510160515 84 0 0.0 5.0 0.00 0.29 0.00 72 1014.4
20260510160033 84 0 0.0 0.0 0.00 0.29 0.00 74 1014.5
20260510155520 84 0 0.0 0.0 0.00 0.29 0.00 75 1014.5
20260510155011 83 0 0.0 2.0 0.00 0.29 0.00 76 1014.7
20260510154528 83 0 0.0 3.0 0.00 0.29 0.00 76 1014.8
20260510154011 83 0 0.0 3.0 0.00 0.29 0.00 75 1014.9
20260510153513 83 0 0.0 3.0 0.00 0.29 0.00 76 1014.8
20260510153030 82 0 0.0 3.0 0.00 0.29 0.00 76 1014.9
20260510152515 82 0 0.0 10.0 0.00 0.29 0.00 77 1014.7
20260510152011 82 0 2.0 10.0 0.00 0.29 0.00 77 1014.7
20260510151527 82 270 3.0 10.0 0.00 0.29 0.00 77 1014.7
20260510151010 81 264 3.0 10.0 0.00 0.29 0.00 77 1014.6
20260510150510 81 239 2.0 8.0 0.00 0.29 0.00 78 1014.5
20260510150028 81 265 2.0 8.0 0.00 0.29 0.00 79 1014.5
20260510145513 81 272 2.0 9.0 0.00 0.29 0.00 79 1014.3
20260510145013 81 0 3.0 10.0 0.00 0.29 0.00 79 1014.4
20260510144537 80 248 4.0 10.0 0.00 0.29 0.00 80 1014.3
20260510144014 80 252 5.0 11.0 0.00 0.29 0.00 80 1014.2
20260510143512 80 223 2.0 12.0 0.00 0.29 0.00 81 1014.2
20260510143043 80 232 6.0 12.0 0.00 0.29 0.00 81 1014.4
20260510142512 80 258 6.0 12.0 0.00 0.29 0.00 82 1014.3
20260510142011 79 290 5.0 11.0 0.00 0.29 0.00 84 1014.2
20260510141535 79 248 2.0 11.0 0.00 0.29 0.00 84 1014.2
20260510141011 79 250 4.0 11.0 0.00 0.29 0.00 85 1014.1
20260510140509 78 278 5.0 11.0 0.00 0.29 0.00 86 1014.0
20260510140032 78 0 4.0 11.0 0.00 0.29 0.00 87 1014.0
20260510135519 78 224 4.0 11.0 0.00 0.29 0.00 87 1014.0
20260510135008 77 0 1.0 9.0 0.00 0.29 0.00 89 1013.8
20260510134528 77 286 2.0 10.0 0.00 0.29 0.00 89 1013.8
20260510134107 77 242 3.0 13.0 0.00 0.29 0.00 90 1013.7
20260510133510 76 213 6.0 13.0 0.00 0.29 0.00 90 1013.7
20260510133034 76 263 5.0 11.0 0.00 0.29 0.00 91 1013.6
20260510132512 76 250 5.0 11.0 0.00 0.29 0.00 91 1013.6
20260510132009 76 234 6.0 11.0 0.00 0.29 0.00 91 1013.6
20260510131530 76 243 6.0 10.0 0.00 0.29 0.00 92 1013.4
20260510131008 76 0 2.0 11.0 0.00 0.29 0.00 92 1013.4
20260510130510 75 247 5.0 11.0 0.00 0.29 0.00 93 1013.3
20260510130028 75 254 6.0 11.0 0.00 0.29 0.00 93 1013.4
20260510125511 75 0 0.0 10.0 0.00 0.29 0.00 93 1013.4
20260510125011 75 275 4.0 10.0 0.00 0.29 0.00 93 1013.4
20260510124527 75 240 2.0 12.0 0.00 0.29 0.00 93 1013.4
20260510124009 75 221 5.0 12.0 0.00 0.29 0.00 93 1013.3
20260510123510 75 241 6.0 11.0 0.00 0.29 0.00 93 1013.2
20260510123030 74 248 6.0 11.0 0.00 0.29 0.00 94 1013.2
20260510122510 74 0 0.0 7.0 0.00 0.29 0.00 93 1013.0
20260510122011 74 0 1.0 8.0 0.00 0.29 0.00 94 1012.9
20260510121530 74 242 2.0 8.0 0.00 0.29 0.00 94 1013.0
20260510121010 74 0 2.0 8.0 0.00 0.29 0.00 94 1012.8
20260510120511 74 215 2.0 8.0 0.00 0.29 0.00 94 1012.9
20260510120028 74 265 2.0 6.0 0.00 0.29 0.00 94 1012.9
20260510115510 73 0 0.0 6.0 0.00 0.29 0.00 94 1012.7
20260510115010 73 0 0.0 7.0 0.00 0.29 0.00 94 1012.7
20260510114527 73 0 0.0 7.0 0.00 0.29 0.00 94 1012.7
20260510114010 73 243 2.0 7.0 0.00 0.29 0.00 93 1012.7
20260510113508 73 0 0.0 7.0 0.00 0.29 0.00 94 1012.6
20260510113026 73 0 2.0 7.0 0.00 0.29 0.00 94 1012.4
20260510112509 73 0 0.0 4.0 0.00 0.29 0.00 94 1012.3
20260510112010 72 0 0.0 3.0 0.00 0.29 0.00 94 1012.3
20260510111528 72 0 0.0 3.0 0.00 0.29 0.00 94 1012.1
20260510111011 72 0 0.0 4.0 0.00 0.29 0.00 93 1012.3
20260510110511 72 0 0.0 8.0 0.00 0.29 0.00 93 1012.2
20260510110030 73 240 3.0 8.0 0.00 0.29 0.00 93 1012.2
20260510105511 73 246 1.0 7.0 0.00 0.29 0.00 94 1012.2
20260510105010 72 0 0.0 0.0 0.00 0.29 0.00 94 1012.1
20260510104528 73 0 0.0 0.0 0.00 0.29 0.00 94 1012.0
20260510104011 72 0 0.0 0.0 0.00 0.29 0.00 93 1011.8
20260510103510 72 0 0.0 0.0 0.00 0.29 0.00 93 1011.9
20260510103029 72 0 0.0 0.0 0.00 0.29 0.00 93 1011.7
20260510102511 72 0 0.0 0.0 0.00 0.29 0.00 93 1011.7
20260510102013 73 0 0.0 0.0 0.00 0.29 0.00 93 1011.7
20260510101528 73 0 0.0 0.0 0.00 0.29 0.00 93 1011.6
20260510101009 73 0 0.0 0.0 0.00 0.29 0.00 93 1011.4
20260510100510 73 0 0.0 0.0 0.00 0.29 0.00 93 1011.4
20260510100026 73 0 0.0 1.0 0.00 0.29 0.00 93 1011.3
20260510095511 73 0 0.0 1.0 0.00 0.29 0.00 93 1011.3
20260510095011 73 0 0.0 1.0 0.00 0.29 0.00 93 1011.4
20260510094526 73 0 0.0 0.0 0.00 0.29 0.00 93 1011.3
20260510094009 73 0 0.0 8.0 0.00 0.29 0.00 93 1011.3
20260510093509 73 0 0.0 8.0 0.00 0.29 0.00 93 1011.2
20260510093028 73 0 0.0 0.0 0.00 0.29 0.00 93 1011.1
20260510092508 73 0 0.0 0.0 0.00 0.29 0.00 93 1011.2
20260510092008 73 0 0.0 0.0 0.00 0.29 0.00 93 1011.1
20260510091527 73 0 0.0 0.0 0.00 0.29 0.00 93 1011.1
20260510091011 73 0 0.0 0.0 0.00 0.29 0.00 93 1010.9
20260510090510 73 0 0.0 1.0 0.00 0.29 0.00 93 1010.9
20260510090030 73 0 0.0 1.0 0.00 0.29 0.00 93 1010.8
20260510085509 73 0 0.0 0.0 0.00 0.29 0.00 93 1010.8
20260510085012 74 0 0.0 0.0 0.00 0.29 0.00 93 1010.7
20260510084532 74 0 0.0 0.0 0.00 0.29 0.00 93 1010.5
20260510084010 74 0 0.0 0.0 0.00 0.29 0.00 93 1010.6
20260510083514 74 0 0.0 0.0 0.00 0.29 0.00 93 1010.5
20260510083035 74 0 0.0 0.0 0.00 0.29 0.00 92 1010.4
20260510082510 74 0 0.0 0.0 0.00 0.29 0.00 92 1010.4
20260510082010 74 0 0.0 0.0 0.00 0.29 0.00 92 1010.3
20260510081539 74 0 0.0 0.0 0.00 0.29 0.00 92 1010.4
20260510081011 74 0 0.0 0.0 0.00 0.29 0.00 93 1010.4
20260510080510 74 0 0.0 0.0 0.00 0.29 0.00 92 1010.4
20260510080030 74 0 0.0 0.0 0.00 0.29 0.00 92 1010.4
20260510075511 74 0 0.0 0.0 0.00 0.29 0.00 92 1010.4
20260510075008 74 0 0.0 0.0 0.00 0.29 0.00 92 1010.5
20260510074528 74 0 0.0 0.0 0.00 0.29 0.00 92 1010.4
20260510074012 74 0 0.0 0.0 0.00 0.29 0.00 92 1010.6
20260510073515 74 0 0.0 0.0 0.00 0.29 0.00 92 1010.6
20260510073028 74 0 0.0 0.0 0.00 0.29 0.00 92 1010.5
20260510072512 74 0 0.0 0.0 0.00 0.29 0.00 92 1010.6
20260510072009 74 0 0.0 0.0 0.00 0.29 0.00 92 1010.6
20260510071528 74 0 0.0 0.0 0.00 0.29 0.00 92 1010.7
20260510071009 74 0 0.0 0.0 0.00 0.29 0.00 92 1010.7
20260510070511 74 0 0.0 0.0 0.00 0.29 0.00 92 1010.8
20260510070028 74 0 0.0 0.0 0.00 0.29 0.00 92 1010.8
20260510065508 74 0 0.0 0.0 0.00 0.29 0.00 92 1010.8
20260510065009 74 0 0.0 4.0 0.00 0.29 0.00 92 1010.9
20260510064535 74 0 0.0 4.0 0.00 0.29 0.00 92 1011.0
20260510064010 74 0 0.0 0.0 0.00 0.29 0.00 92 1011.1
20260510063512 74 0 0.0 0.0 0.00 0.29 0.00 92 1011.3
20260510063038 74 0 0.0 0.0 0.00 0.29 0.00 92 1011.3
20260510062512 74 0 0.0 0.0 0.00 0.29 0.00 92 1011.4
20260510062013 73 0 0.0 2.0 0.00 0.29 0.00 92 1011.4
20260510061533 73 0 0.0 2.0 0.00 0.29 0.00 92 1011.5
20260510061009 73 0 0.0 0.0 0.00 0.29 0.00 92 1011.5
20260510060510 73 0 0.0 0.0 0.00 0.29 0.00 91 1011.6
20260510060041 74 0 0.0 0.0 0.00 0.29 0.00 92 1011.6
20260510055507 73 0 0.0 0.0 0.00 0.29 0.00 92 1011.7
20260510055010 73 0 0.0 4.0 0.00 0.29 0.00 92 1011.7
20260510054528 73 0 0.0 4.0 0.00 0.29 0.00 92 1011.8
20260510054012 74 0 0.0 0.0 0.00 0.29 0.00 92 1012.0
20260510053511 74 0 0.0 0.0 0.00 0.29 0.00 92 1011.9
20260510053038 73 0 0.0 0.0 0.00 0.29 0.00 92 1011.9
20260510052510 73 0 0.0 0.0 0.00 0.29 0.00 92 1011.9
20260510052015 73 0 0.0 0.0 0.00 0.29 0.00 91 1012.0
20260510051528 73 0 0.0 0.0 0.00 0.29 0.00 92 1012.1
20260510051011 73 0 0.0 0.0 0.00 0.29 0.00 91 1012.1
20260510050509 74 0 0.0 0.0 0.00 0.29 0.00 91 1012.3
20260510050028 74 0 0.0 0.0 0.00 0.29 0.00 91 1012.3
20260510045509 73 0 0.0 0.0 0.00 0.29 0.00 91 1012.4
20260510045010 74 0 0.0 0.0 0.00 0.29 0.00 91 1012.3
20260510044543 74 0 0.0 0.0 0.00 0.29 0.00 91 1012.3
20260510044010 74 0 0.0 0.0 0.00 0.29 0.00 91 1012.4
20260510043510 74 0 0.0 0.0 0.00 0.29 0.00 91 1012.4
20260510043031 74 0 0.0 0.0 0.00 0.29 0.00 91 1012.4
20260510042510 73 0 0.0 0.0 0.00 0.29 0.00 91 1012.4
20260510042010 73 0 0.0 0.0 0.00 0.29 0.00 90 1012.5
20260510041527 74 0 0.0 0.0 0.00 0.29 0.00 89 1012.4
20260510041010 74 0 0.0 0.0 0.00 0.29 0.00 90 1012.4
20260510040510 73 0 0.0 1.0 0.00 0.29 0.00 89 1012.4
20260510040038 73 0 0.0 1.0 0.00 0.29 0.00 89 1012.4
20260510035508 74 0 0.0 0.0 0.00 0.29 0.29 89 1012.4
20260510035012 74 0 0.0 0.0 0.00 0.29 0.29 89 1012.5
20260510034527 74 0 0.0 0.0 0.00 0.29 0.29 89 1012.6
20260510034011 75 0 0.0 0.0 0.00 0.29 0.29 88 1012.4
20260510033511 75 0 0.0 6.0 0.00 0.29 0.29 88 1012.4
20260510033046 75 0 0.0 6.0 0.00 0.29 0.29 87 1012.4
20260510032511 76 0 0.0 6.0 0.00 0.29 0.29 88 1012.3
20260510032011 76 0 0.0 6.0 0.00 0.29 0.29 88 1012.4
20260510031528 76 0 1.0 6.0 0.00 0.29 0.29 88 1012.4
20260510031009 75 0 0.0 7.0 0.00 0.29 0.29 88 1012.5
20260510030515 75 0 1.0 7.0 0.00 0.29 0.29 88 1012.3
20260510030041 75 0 0.0 4.0 0.00 0.29 0.29 87 1012.2
20260510025510 75 0 0.0 3.0 0.00 0.29 0.29 87 1012.5
20260510025008 76 0 0.0 6.0 0.00 0.29 0.29 87 1012.3
20260510024529 75 0 0.0 6.0 0.00 0.29 0.29 87 1012.4
20260510024008 75 0 2.0 6.0 0.00 0.29 0.29 87 1011.9
20260510023509 75 0 0.0 4.0 0.00 0.29 0.29 88 1012.0
20260510023028 75 0 0.0 3.0 0.00 0.29 0.29 88 1011.9
20260510022510 75 0 0.0 1.0 0.00 0.29 0.29 88 1011.8
20260510022010 75 0 0.0 2.0 0.00 0.29 0.29 88 1012.2
20260510021527 75 0 0.0 3.0 0.00 0.29 0.29 88 1012.1
20260510021009 75 165 0.0 3.0 0.00 0.29 0.29 89 1011.9
20260510020509 75 0 0.0 0.0 0.00 0.29 0.29 89 1012.0
20260510020032 74 0 0.0 0.0 0.00 0.29 0.29 89 1011.9
20260510015514 75 0 0.0 1.0 0.00 0.29 0.29 90 1012.1
20260510015014 74 0 0.0 1.0 0.00 0.29 0.29 90 1011.7
20260510014535 75 0 0.0 0.0 0.00 0.29 0.29 90 1011.8
20260510014008 74 0 0.0 0.0 0.00 0.29 0.29 90 1011.8
20260510013508 74 0 0.0 0.0 0.00 0.29 0.29 90 1011.8
20260510013027 74 0 0.0 0.0 0.00 0.29 0.29 90 1011.6
20260510012507 74 0 0.0 0.0 0.00 0.29 0.29 90 1011.7
20260510012011 74 0 0.0 0.0 0.00 0.29 0.29 90 1011.8
20260510011528 74 0 0.0 0.0 0.00 0.29 0.29 89 1011.8
20260510011009 74 0 0.0 0.0 0.00 0.29 0.29 89 1011.7
20260510010510 74 0 0.0 0.0 0.00 0.29 0.29 89 1011.7
20260510010029 74 0 0.0 0.0 0.00 0.29 0.29 89 1011.7
20260510005509 75 0 0.0 0.0 0.00 0.29 0.29 89 1011.7
20260510005008 75 0 0.0 0.0 0.00 0.29 0.29 89 1011.7
20260510004531 75 0 0.0 0.0 0.00 0.29 0.29 89 1011.7
20260510004007 75 0 0.0 0.0 0.00 0.29 0.29 89 1011.5
20260510003508 75 0 0.0 0.0 0.00 0.29 0.29 89 1011.3
20260510003028 75 0 0.0 0.0 0.00 0.29 0.29 89 1011.3
20260510002510 75 0 0.0 0.0 0.00 0.29 0.29 89 1011.3
20260510002009 75 0 0.0 0.0 0.00 0.29 0.29 89 1011.3
20260510001530 75 0 0.0 0.0 0.00 0.29 0.29 89 1011.2
20260510001010 75 0 0.0 0.0 0.00 0.29 0.29 89 1011.1
20260510000511 75 0 0.0 0.0 0.00 0.29 0.29 89 1011.0
20260510000028 75 0 0.0 0.0 0.00 0.29 0.29 89 1011.0
20260509235512 75 0 0.0 0.0 0.00 0.29 0.29 89 1011.0
20260509235009 75 0 0.0 0.0 0.00 0.29 0.29 89 1010.8
20260509234537 75 0 0.0 0.0 0.00 0.29 0.29 89 1010.8
20260509234013 75 0 0.0 0.0 0.00 0.29 0.29 88 1011.0
20260509233509 75 0 0.0 0.0 0.00 0.29 0.29 88 1010.8
20260509233026 75 0 0.0 0.0 0.00 0.29 0.29 88 1010.9
20260509232509 75 0 0.0 0.0 0.00 0.29 0.29 88 1010.8
20260509232008 75 0 0.0 0.0 0.00 0.29 0.29 88 1010.8
20260509231527 75 0 0.0 0.0 0.00 0.29 0.29 88 1010.7
20260509231008 75 0 0.0 0.0 0.00 0.29 0.29 88 1010.7
20260509230509 75 0 0.0 0.0 0.00 0.29 0.29 88 1010.5
20260509230028 75 0 0.0 2.0 0.00 0.29 0.29 88 1010.6
20260509225510 75 0 0.0 6.0 0.00 0.54 0.29 88 1010.6
20260509225009 74 0 1.0 6.0 0.00 0.54 0.29 88 1010.5
20260509224525 74 0 0.0 1.0 0.00 0.54 0.29 88 1010.4
20260509224009 74 0 0.0 1.0 0.00 0.54 0.29 88 1010.5
20260509223508 74 0 0.0 5.0 0.00 0.54 0.29 88 1010.4
20260509223030 74 0 0.0 5.0 0.00 0.54 0.29 88 1010.5
20260509222510 74 350 0.0 4.0 0.00 0.54 0.29 89 1010.4
20260509222008 74 0 0.0 3.0 0.00 0.54 0.29 89 1010.4
20260509221535 74 0 0.0 1.0 0.00 0.54 0.29 89 1010.4
20260509221011 75 0 0.0 1.0 0.00 0.54 0.29 89 1010.5
20260509220508 75 0 0.0 0.0 0.00 0.54 0.29 89 1010.4
20260509220027 74 0 0.0 0.0 0.00 0.54 0.29 89 1010.5
20260509215510 75 0 0.0 0.0 0.00 0.78 0.29 90 1010.5
20260509215008 74 0 0.0 0.0 0.00 0.78 0.29 89 1010.5
20260509214527 75 0 0.0 0.0 0.00 0.78 0.29 89 1010.5
20260509214010 75 0 0.0 1.0 0.00 0.78 0.29 89 1010.4
20260509213508 75 0 0.0 1.0 0.00 0.78 0.29 89 1010.3
20260509213031 75 0 0.0 0.0 0.00 0.78 0.29 89 1010.4
20260509212513 75 0 0.0 0.0 0.00 0.78 0.29 89 1010.4
20260509212015 75 0 0.0 0.0 0.00 0.78 0.29 89 1010.3
20260509211528 75 0 0.0 1.0 0.00 0.78 0.29 89 1010.3
20260509211008 75 0 0.0 1.0 0.01 0.78 0.29 89 1010.5
20260509210510 76 0 0.0 5.0 0.01 0.78 0.29 89 1010.5
20260509210031 76 0 0.0 5.0 0.15 0.78 0.29 89 1010.4
20260509205507 77 0 0.0 2.0 0.22 0.78 0.29 90 1010.4
20260509205007 77 0 0.0 2.0 0.27 0.78 0.29 90 1010.4
20260509204530 77 0 0.0 1.0 0.27 0.78 0.29 90 1010.4
20260509204010 77 0 0.0 0.0 0.29 0.78 0.29 90 1010.5
20260509203508 77 0 0.0 0.0 0.29 0.78 0.29 90 1010.5
20260509203029 77 0 0.0 1.0 0.29 0.78 0.29 90 1010.5
20260509202511 77 0 0.0 1.0 0.29 0.78 0.29 90 1010.3
20260509202012 77 0 0.0 0.0 0.29 0.78 0.29 89 1010.3
20260509201526 77 0 0.0 1.0 0.29 0.78 0.29 89 1010.1
20260509201008 77 0 0.0 7.0 0.28 0.77 0.28 88 1010.2
20260509200509 77 0 0.0 10.0 0.27 0.76 0.27 89 1010.3
20260509200030 78 244 1.0 10.0 0.12 0.61 0.12 88 1010.9
20260509195512 78 0 0.0 4.0 0.06 0.55 0.06 88 1010.3
20260509195008 78 0 0.0 0.0 0.02 0.51 0.02 87 1010.2
20260509194528 78 0 0.0 1.0 0.02 0.51 0.02 87 1009.8
20260509194009 78 0 0.0 1.0 0.00 0.49 0.00 87 1010.1
20260509193513 78 0 0.0 1.0 0.00 0.49 0.00 86 1010.0
20260509193035 79 0 0.0 3.0 0.00 0.49 0.00 87 1010.0
20260509192509 79 0 0.0 3.0 0.00 0.49 0.00 86 1009.8
20260509192015 79 0 0.0 3.0 0.00 0.49 0.00 86 1009.7
20260509191529 79 0 0.0 3.0 0.00 0.49 0.00 86 1009.6
20260509191009 79 0 0.0 1.0 0.00 0.49 0.00 86 1009.8
20260509190508 79 0 0.0 2.0 0.00 0.49 0.00 85 1009.7
20260509190028 80 0 0.0 4.0 0.00 0.49 0.00 85 1009.8
20260509185509 80 0 0.0 4.0 0.00 0.49 0.00 85 1009.9
20260509185010 80 0 0.0 4.0 0.00 0.49 0.00 84 1009.8
20260509184538 80 0 0.0 2.0 0.00 0.49 0.00 85 1009.9
20260509184009 80 0 0.0 1.0 0.00 0.49 0.00 84 1010.0
20260509183509 80 0 0.0 1.0 0.00 0.49 0.00 85 1010.3
20260509183028 80 0 0.0 1.0 0.00 0.49 0.00 84 1010.4
20260509182510 81 0 0.0 3.0 0.00 0.49 0.00 85 1010.5
20260509182009 80 0 0.0 3.0 0.00 0.49 0.00 85 1010.6
20260509181529 81 41 0.0 3.0 0.00 0.49 0.00 85 1010.4
20260509181013 80 30 0.0 1.0 0.00 0.49 0.00 85 1010.7
20260509180510 80 0 0.0 3.0 0.00 0.49 0.00 85 1010.7
20260509180030 80 0 0.0 3.0 0.00 0.49 0.00 85 1010.8
20260509175510 80 0 0.0 3.0 0.00 0.49 0.00 85 1010.8
20260509175014 80 0 0.0 1.0 0.00 0.49 0.00 85 1010.9
20260509174529 81 0 0.0 2.0 0.00 0.49 0.00 85 1011.1
20260509174014 81 0 0.0 3.0 0.00 0.49 0.00 85 1011.0
20260509173508 80 46 0.0 3.0 0.00 0.49 0.00 86 1010.8
20260509173026 80 99 1.0 3.0 0.00 0.49 0.00 86 1010.9
20260509172516 80 90 0.0 2.0 0.00 0.49 0.00 86 1011.1
20260509172012 80 56 0.0 3.0 0.00 0.49 0.00 86 1011.0
20260509171540 80 69 1.0 3.0 0.00 0.49 0.00 86 1011.1
20260509171006 80 35 1.0 5.0 0.00 0.49 0.00 86 1011.1
20260509170507 80 31 3.0 5.0 0.00 0.49 0.00 85 1011.1
20260509170030 80 46 3.0 5.0 0.00 0.49 0.00 85 1011.1
20260509165508 81 54 2.0 5.0 0.00 0.49 0.00 85 1011.1
20260509165007 81 49 3.0 5.0 0.00 0.49 0.00 84 1011.1
20260509164528 81 59 1.0 4.0 0.00 0.49 0.00 85 1011.2
20260509164012 81 92 1.0 4.0 0.00 0.49 0.00 85 1011.1
20260509163512 81 57 1.0 4.0 0.00 0.49 0.00 85 1011.0
20260509163202 81 81 1.0 4.0 0.00 0.49 0.00 85 1011.0
20260509162511 80 70 1.0 5.0 0.00 0.49 0.00 85 1011.1
20260509162011 80 0 0.0 5.0 0.00 0.49 0.00 84 1011.1
20260509161533 80 30 1.0 4.0 0.00 0.49 0.00 84 1011.1
20260509161009 80 27 0.0 3.0 0.00 0.49 0.00 84 1011.2